Flag for U.S.A. Weather past 2 weeks in Kilgore, Texas, U.S.A.

Now
68 °F

Clear.


Feels Like: 68 °F
Forecast: 66 / 81 °F
Wind: 9 mph from South

Location: Gregg County Airport

Current Time: Apr 2, 2015 at 2:18:09 AM

Latest Report: Apr 2, 2015 at 1:53 AM


Visibility: 10 mi

Pressure: 29.89 "Hg

Humidity: 84%

Dew point: 63 °F

Location of KilgoreLocation

Historic Weather in Kilgore — Graph

°F

Kilgore temperature yesterday

Maximum temperature yesterday: 80 °F (at 3:53 PM)
Minimum temperature yesterday: 61 °F (at 1:53 AM)
Average temperature yesterday: 71 °F

Past Weeks' High & Low Weather Summary

 TemperatureHumidityPressure
High84 °F (Mar 29, 3:53 PM)97% (Mar 19, 1:53 AM)30.19 "Hg (Mar 19, 1:53 AM)
Low38 °F (Mar 27, 6:53 AM)29% (Mar 28, 3:53 PM)29.81 "Hg (Mar 26, 1:53 AM)
Average63 °F76%30.02 "Hg
* Reported Mar 18 12:53 AM — Apr 2 12:53 AM, Kilgore, Weather by CustomWeather, © 2015

Note: Actual official high and low records may vary slightly from our data, if they occured in-between our weather recording intervals... More about our weather records

Advertising

Kilgore weather history for previous 24 hours

 ConditionsComfort  
Time TempWeatherWind HumidityBarometerVisibility
12:53 AM
Thu, Apr 2
69 °FClear.14 mph81%29.89 "Hg10 mi
11:53 PM
Wed, Apr 1
70 °FClear.13 mph81%29.90 "Hg10 mi
10:53 PM73 °FPassing clouds.15 mph76%29.90 "Hg10 mi
9:53 PM72 °FPassing clouds.10 mph76%29.90 "Hg10 mi
8:53 PM73 °FPassing clouds.9 mph71%29.89 "Hg10 mi
7:53 PM76 °FPartly sunny.17 mph60%29.85 "Hg10 mi
6:53 PM79 °FPassing clouds.13 mph52%29.85 "Hg10 mi
5:53 PM80 °FScattered clouds.15 mph51%29.84 "Hg10 mi
4:53 PM79 °FPartly sunny.12 mph54%29.86 "Hg10 mi
3:53 PM80 °FPartly sunny.14 mph54%29.88 "Hg10 mi
2:53 PM78 °FPartly sunny.15 mph56%29.90 "Hg10 mi
1:53 PM77 °FPartly sunny.15 mph62%29.93 "Hg10 mi
12:53 PM76 °FLight rain. Passing clouds.16 mph67%29.95 "Hg10 mi
11:53 AM72 °FLight rain. Mostly cloudy.14 mph73%29.98 "Hg10 mi
10:53 AM73 °FLight rain. Overcast.16 mph74%29.97 "Hg10 mi
9:53 AM71 °FPartly sunny.13 mph84%29.96 "Hg3 mi
8:53 AM67 °FFog.9 mph93%29.95 "Hg2 mi
7:53 AM65 °FFog.8 mph94%29.94 "Hg2 mi
6:53 AM63 °FFog.7 mph97%29.93 "Hg2 mi
5:53 AM64 °FFog.7 mph94%29.95 "Hg4 mi
5:01 AM61 °FFog.6 mph93%29.96 "Hg3 mi
3:53 AM65 °FPassing clouds.7 mph91%29.94 "Hg9 mi
2:53 AM63 °FClear.7 mph90%29.93 "Hg10 mi
Weather by CustomWeather, © 2015

See weather overviewHow to use our weather pages